Regional Weather Roundup
Issued by NWS

Home | Current Version | Previous Version | Graphics & Text | Print | Product List | Glossary On
Versions: 1 2 3 4 5 6 7 8 9 10 11 12 13 14 15 16 17 18 19 20 21 22 23 24 25 26 27 28 29 30 31 32 33 34 35 36 37 38 39 40 41 42 43 44 45 46 47 48 49 50
548
ASUS43 KDTX 241401
RWRMI
MICHIGAN HOURLY REGIONAL WEATHER ROUNDUP
NATIONAL WEATHER SERVICE DETROIT/PONTIAC MI
1000 AM EDT TUE MAY 24 2016

NOTE: "FAIR" INDICATES FEW OR NO CLOUDS BELOW 12,000 FEET WITH NO
SIGNIFICANT WEATHER AND/OR OBSTRUCTION TO VISIBILITY.

MIZ047>049-052>055-059>063-066>070-074>076-081>083-241500-
SOUTHEAST LOWER MICHIGAN

CITY           SKY/WX    TMP DP  RH WIND       PRES   REMARKS
ADRIAN         SUNNY     68  47  46 W7        30.07S
ALMA           SUNNY     69  45  41 W16G22    30.01S
ANN ARBOR      SUNNY     70  47  43 SW7       30.05F
BAD AXE        SUNNY     71  42  35 SW7       30.01F
CARO           SUNNY     72  45  38 SW6       30.00F
DETROIT CITY   SUNNY     72  47  40 SW9       30.05F
DETROIT        MOSUNNY   72  48  42 SW5       30.06S
FLINT          SUNNY     75  44  33 SW8       30.02F
GROSSE ILE     SUNNY     68  54  60 S3        30.05S
HILLSDALE      SUNNY     72  36  26 W7        30.07R
HOWELL         SUNNY     72  43  35 SW7       30.03F

CITY           SKY/WX    TMP DP  RH WIND       PRES   REMARKS
JACKSON        SUNNY     72  44  36 W10       30.05S
LAMBERTVILLE   SUNNY     72  48  42 W6        30.07S
LANSING        SUNNY     72  46  39 SW9       30.03S
LAPEER         FAIR      73  38  28 SW7       30.03F
MASON          SUNNY     71  45  39 SW6       30.04S
MONROE         SUNNY     70  49  48 W7        30.06S
PONTIAC        MOSUNNY   72  44  36 W9        30.04F
PORT HOPE        N/A     74  37  26 SW12G17   29.98S
PORT HURON     SUNNY     70  48  46 SW6       30.04S
TRI CITIES     SUNNY     71  43  36 SW9       30.00F
MIDLAND        FAIR      71  45  38 SW6       29.99F
TROY           SUNNY     72  44  35 SW5       30.06F
SAGINAW HB     SUNNY     72  41  33 SW10G16   30.00S
$$
MIZ043>046-050>051-056>058-064>065-071>073-077>080-241500-
SOUTHWEST LOWER MICHIGAN

CITY           SKY/WX    TMP DP  RH WIND       PRES   REMARKS
BATTLE CREEK   SUNNY     72  45  37 W13       30.04S
BENTON HARBOR  CLOUDY    74  52  46 SW9       30.03R
BIG RAPIDS     SUNNY     71  48  43 SW5       29.99S
COLDWATER      SUNNY     71  44  37 SW9       30.05S
FREMONT        FAIR      69  47  46 W7        30.00S
HOLLAND        CLOUDY    70  48  45 SW13      30.03R
GRAND RAPIDS   PTSUNNY   75  47  36 W12       30.02S
IONIA          FAIR      72  44  35 W13G20    30.01S
KALAMAZOO      SUNNY     73  47  39 SW8       30.04R
LUDINGTON      CLOUDY    67  48  51 SW10      29.98R
MARSHALL       SUNNY     72  45  37 SW10      30.04S
MOUNT PLEASANT SUNNY     72  48  41 W8        29.98S
MUSKEGON       PTSUNNY   66  47  50 SW7       30.01R
SOUTH HAVEN    MOSUNNY   72  47  40 SW13G18   30.02S
$$
MIZ016>042-241500-
NORTHERN LOWER MICHIGAN

CITY           SKY/WX    TMP DP  RH WIND       PRES   REMARKS
ALPENA         SUNNY     77  40  26 SW10      29.95S
BEAVER ISLAND  SUNNY     65  42  43 SW12      29.93S
BELLAIRE       SUNNY     73  42  33 SW7       29.95R
CADILLAC       SUNNY     70  47  43 SW6       29.98S
CHARLEVOIX     SUNNY     73  44  34 SW9       29.97R
FRANKFORT      MOSUNNY   71  47  42 SW5       29.96R
GAYLORD        SUNNY     75  43  31 SW10      29.96S
GRAYLING       SUNNY     76  46  34 W8        29.97S
HARBOR SPRINGS SUNNY     71  42  34 W6        29.94S
HOUGHTON LAKE  SUNNY     70  45  40 SW7       29.98F
MANISTEE       MOSUNNY   72  48  43 SW6       29.97S
OSCODA         SUNNY     73  43  35 SW7       29.97S
PELLSTON       SUNNY     74  42  31 SW7       29.93R
ROGERS CITY    SUNNY     77  40  26 W7        29.93F
TRAVERSE CITY  PTSUNNY   75  44  33 SW10      29.94R
$$
MIZ007>008-015-241500-
EASTERN UPPER MICHIGAN

CITY           SKY/WX    TMP DP  RH WIND       PRES   REMARKS
KINROSS          N/A     68  45  42 SW7       29.91F
MACKINAC ISLAN SUNNY     65  42  42 W9        29.92S
NEWBERRY       MOSUNNY   66  49  54 SW6       29.90S
S. S. MARIE    SUNNY     65  45  48 S5        29.92R
MUNISING         N/A     67  51  56 VRB5      29.88R
$$
MIZ004>006-011>014-085-241500-
CENTRAL UPPER MICHIGAN

CITY           SKY/WX    TMP DP  RH WIND       PRES   REMARKS
MANISTIQUE     CLOUDY    58  49  71 SE3       29.90F
ESCANABA       MOSUNNY   72  55  56 E3        29.88F
MENOMINEE      SUNNY     71  54  54 SW5       29.91F
SAWYER-GWINN   PTSUNNY   66  57  72 W9        29.90R
$$
MIZ001>003-009>011-084-241500-
WESTERN UPPER MICHIGAN

CITY           SKY/WX    TMP DP  RH WIND       PRES   REMARKS
IRON MOUNTAIN  CLOUDY    68  58  70 W5        29.89S
HOUGHTON       PTSUNNY   66  58  75 CALM      29.86F
COPPER HARBOR    N/A     53  52  96 NE3       29.87R
IRONWOOD       CLOUDY    64  63  94 CALM      29.84R
$$

ABBREVIATIONS USED IN REMARKS
   TC - TEMPERATURE IN CELSIUS
  WCI - WIND CHILL INDEX
   HX - HEAT INDEX
  VSB - VISIBILITY





USA.gov is the U.S. government's official web portal to all federal, state and local government web resources and services.